Tracking 29892 objects as of 21-Nov-2024
HD Live streaming from Space Station
objects crossing your sky now

STARLINK-6123

Track STARLINK-6123 now!
10-day predictions
STARLINK-6123 is classified as:


NORAD ID: 57103
Int'l Code: 2023-090C
Perigee: 471.8 km
Apogee: 473.7 km
Inclination: 43.0 °
Period: 93.9 minutes
Semi major axis: 6843 km
RCS: Unknown
Launch date: June 23, 2023
Source: United States (US)
Launch site: AIR FORCE EASTERN TEST RANGE (AFETR)
Your satellite tracking list
Your tracking list is empty




NASA's NSSDC Master Catalog

Two Line Element Set (TLE):
1 57103U 23090C   24326.25001157  .01204947  00000-0  33553-1 0  9995
2 57103  43.0024 299.6238 0001363 258.4749 111.0504 15.33429306 78375
Source of the keplerian elements: AFSPC